Location: Unspecified
(48.2082°N, 0.0000°E)
Time: 11:17:24
(UTC+00:00)

Transit 4A - Pass Details

Date: 23 June 2019
Orbit: 862 x 982 km, 66.8° (Epoch: 22 July)

Event Time Altitude Azimuth Distance (km) Brightness Sun altitude
Rises 07:23:05 0° 190° (S) 3,606 10.9 30.5°
Reaches altitude 10° 07:25:42 10° 184° (S) 2,680 10.4 31.0°
Maximum altitude 07:31:36 44° 114° (ESE) 1,317 10.3 31.9°
Drops below altitude 10° 07:37:37 10° 45° (NE) 2,742 11.1 32.9°
Sets 07:40:19 0° 39° (NE) 3,696 11.5 33.4°
